Tracking 18945 objects as of 21-Jan-2018
HD Live streaming from Space Station
objects crossing your sky now

FENGYUN 1C DEB

Track FENGYUN 1C DEB now!
10-day predictions


NORAD ID: 30350
Int'l Code: 1999-025ABM
Perigee: 809.0 km
Apogee: 1,145.1 km
Inclination: 98.1 °
Period: 104.5 minutes
Semi major axis: 7348 km
RCS: 0.0298 m2 (small)
Launch date: May 10, 1999
Source: People's Republic of China (PRC)
Launch site: Taiyaun Space Center, China (TSC)

Note: This is SATELLITE DEBRIS
aabbcc
Your satellite tracking list
Your tracking list is empty




NASA's NSSDC Master Catalog

Two Line Element Set (TLE):
1 30350U 99025ABM 18018.47840957  .00000163  00000-0  16263-3 0  9999
2 30350  98.0962 203.6408 0228686 296.0980 115.8461 13.78303793552097
Source of the keplerian elements: AFSPC